contact:dominique.lefevre@mio.osupytheas.fr, maurice.libes@osupytheas.fr, didier.mallarino@osupytheas.fr
Project:EMSO http://www.emso-fr.org/EMSO-France
Depth: 2436.0 m
Title:EMSO Ligure Ouest : Data MII capteur AQUADOPP
Date,Latitude,Longitude,X_East,Y_North,Z_Up,Amplitude_X,Amplitude_Y,Amplitude_Z,Batterie,SoundSpeed,Heading,Pitch,Roll,Pressure,TIS,Speed,Direction
, degrees North, degrees East, m.s-1, m.s-1,m.s-1, 1, 1, 1, Volt, m.s-1, degree, degree, degree, dbar, degree_C, m.s-1, degree
2023-11-10T00:04:02,42.805,6.029,0.023,-0.007,-0.005,104.0,103.0,102.0,13.3,1505.2,346.7,-0.8,1.8,2471.52,13.28,0.024,106.9
2023-11-10T00:07:02,42.805,6.029,0.022,-0.007,-0.018,103.0,103.0,101.0,13.4,1505.2,349.9,-0.8,1.9,2471.498,13.29,0.023,107.6
2023-11-10T00:10:03,42.805,6.029,0.043,-0.001,-0.005,103.0,103.0,101.0,13.4,1505.2,354.1,-0.8,1.8,2471.509,13.29,0.043,91.3
2023-11-10T00:13:03,42.805,6.029,0.016,-0.036,-0.022,103.0,103.0,101.0,13.4,1505.2,353.1,-0.8,1.9,2471.505,13.29,0.039,156.0
2023-11-10T00:16:03,42.805,6.029,0.041,-0.006,-0.017,104.0,104.0,102.0,13.4,1505.2,335.6,-0.8,1.8,2471.505,13.29,0.041,98.3
2023-11-10T00:19:03,42.805,6.029,0.032,-0.01,-0.017,103.0,104.0,102.0,13.4,1505.2,353.0,-0.8,1.8,2471.487,13.29,0.033,107.4
2023-11-10T00:22:03,42.805,6.029,0.03,-0.016,-0.002,105.0,103.0,101.0,13.4,1505.2,345.9,-0.8,1.8,2471.467,13.29,0.034,118.1
2023-11-10T00:25:03,42.805,6.029,0.017,-0.008,0.01,104.0,103.0,102.0,13.4,1505.2,340.2,-0.8,1.8,2471.489,13.29,0.018,115.2
2023-11-10T00:28:03,42.805,6.029,0.033,-0.018,-0.002,104.0,103.0,101.0,13.3,1505.2,343.8,-0.8,1.8,2471.526,13.29,0.037,118.6
2023-11-10T00:31:03,42.805,6.029,0.021,-0.016,-0.039,105.0,102.0,101.0,13.4,1505.2,347.3,-0.8,1.8,2471.44,13.29,0.026,127.3
2023-11-10T00:34:03,42.805,6.029,0.036,-0.013,-0.021,103.0,104.0,102.0,13.4,1505.2,354.8,-0.7,1.8,2471.467,13.29,0.038,109.9
2023-11-10T00:37:03,42.805,6.029,0.039,-0.014,0.008,105.0,103.0,101.0,13.4,1505.2,347.4,-0.8,1.8,2471.477,13.29,0.041,109.7
2023-11-10T00:40:03,42.805,6.029,0.024,-0.022,-0.005,103.0,103.0,102.0,13.4,1505.2,343.3,-0.8,1.8,2471.471,13.29,0.032,132.5
2023-11-10T00:43:03,42.805,6.029,0.015,-0.034,-0.056,103.0,105.0,102.0,13.4,1505.2,347.1,-0.7,1.8,2471.504,13.29,0.037,156.2
2023-11-10T00:46:03,42.805,6.029,0.034,-0.018,-0.03,103.0,103.0,103.0,13.4,1505.2,341.3,-0.8,1.8,2471.462,13.29,0.038,117.9
2023-11-10T00:49:03,42.805,6.029,0.05,-0.037,-0.029,103.0,104.0,102.0,13.4,1505.2,342.7,-0.8,1.8,2471.468,13.29,0.062,126.5
2023-11-10T00:52:03,42.805,6.029,0.027,-0.019,0.0,103.0,103.0,101.0,13.4,1505.2,336.2,-0.8,1.8,2471.474,13.29,0.033,125.1
2023-11-10T00:55:03,42.805,6.029,0.023,-0.028,-0.029,103.0,103.0,102.0,13.3,1505.2,356.4,-0.7,1.8,2471.495,13.29,0.036,140.6
2023-11-10T00:58:03,42.805,6.029,0.041,-0.031,-0.038,103.0,104.0,102.0,13.4,1505.2,351.4,-0.8,1.8,2471.486,13.29,0.051,127.1
2023-11-10T01:04:02,42.805,6.029,0.006,-0.007,-0.032,105.0,103.0,102.0,13.4,1505.2,358.1,-0.8,1.8,2471.506,13.28,0.009,139.4
2023-11-10T01:07:03,42.805,6.029,0.025,-0.027,-0.023,103.0,103.0,102.0,13.4,1505.2,347.8,-0.8,1.8,2471.511,13.28,0.036,137.2
2023-11-10T01:10:03,42.805,6.029,0.022,-0.044,-0.027,104.0,103.0,102.0,13.4,1505.2,336.2,-0.8,1.8,2471.524,13.29,0.049,153.4
2023-11-10T01:13:03,42.805,6.029,0.007,-0.016,-0.008,105.0,103.0,102.0,13.4,1505.2,353.6,-0.8,1.8,2471.511,13.29,0.017,156.4
2023-11-10T01:16:03,42.805,6.029,0.012,-0.003,-0.025,104.0,103.0,102.0,13.4,1505.2,352.1,-0.8,1.8,2471.474,13.29,0.012,104.0
2023-11-10T01:19:03,42.805,6.029,0.041,-0.018,-0.028,104.0,103.0,102.0,13.3,1505.2,343.3,-0.7,1.8,2471.476,13.29,0.044,113.7
2023-11-10T01:22:02,42.805,6.029,0.029,-0.011,-0.006,105.0,104.0,101.0,13.4,1505.2,332.6,-0.8,1.8,2471.53,13.29,0.031,110.8
2023-11-10T01:25:03,42.805,6.029,0.006,-0.018,-0.021,105.0,104.0,102.0,13.3,1505.2,359.0,-0.8,1.8,2471.507,13.29,0.018,161.6
2023-11-10T01:28:03,42.805,6.029,0.039,-0.007,-0.04,105.0,102.0,102.0,13.3,1505.2,340.9,-0.8,1.8,2471.484,13.29,0.039,100.2
2023-11-10T01:31:03,42.805,6.029,0.034,-0.025,-0.035,104.0,104.0,102.0,13.4,1505.2,340.8,-0.8,1.8,2471.492,13.29,0.042,126.3
2023-11-10T01:34:03,42.805,6.029,0.025,0.003,0.0,104.0,103.0,101.0,13.3,1505.2,356.1,-0.8,1.8,2471.484,13.29,0.025,83.2
2023-11-10T01:37:02,42.805,6.029,0.023,-0.021,-0.027,102.0,103.0,103.0,13.4,1505.2,348.1,-0.8,1.8,2471.469,13.29,0.031,132.4
2023-11-10T01:40:03,42.805,6.029,0.036,0.001,-0.019,104.0,102.0,104.0,13.3,1505.2,334.5,-0.8,1.8,2471.46,13.29,0.036,88.4
2023-11-10T01:43:03,42.805,6.029,0.024,-0.009,-0.044,104.0,104.0,101.0,13.3,1505.2,358.0,-0.8,1.8,2471.5,13.29,0.025,110.6
2023-11-10T01:46:03,42.805,6.029,0.021,-0.021,-0.028,105.0,103.0,101.0,13.3,1505.2,341.3,-0.8,1.8,2471.469,13.29,0.029,135.0
2023-11-10T01:49:03,42.805,6.029,0.021,-0.015,-0.026,105.0,104.0,101.0,13.4,1505.2,340.0,-0.8,1.8,2471.502,13.29,0.025,125.5
2023-11-10T01:52:03,42.805,6.029,0.029,-0.012,-0.021,104.0,101.0,101.0,13.3,1505.2,354.4,-0.8,1.8,2471.476,13.29,0.031,112.5
2023-11-10T01:55:03,42.805,6.029,0.032,-0.013,-0.017,106.0,104.0,102.0,13.4,1505.2,341.2,-0.8,1.8,2471.561,13.29,0.034,112.1
2023-11-10T01:58:03,42.805,6.029,0.026,-0.019,-0.007,102.0,104.0,102.0,13.3,1505.2,341.8,-0.7,1.8,2471.519,13.29,0.032,126.2
2023-11-10T02:04:02,42.805,6.029,0.022,-0.018,-0.047,104.0,104.0,101.0,13.4,1505.2,346.7,-0.8,1.8,2471.547,13.28,0.028,129.3
2023-11-10T02:07:03,42.805,6.029,0.051,-0.021,-0.025,104.0,104.0,101.0,13.3,1505.2,334.2,-0.8,1.8,2471.544,13.29,0.055,112.4
2023-11-10T02:10:03,42.805,6.029,0.033,-0.024,-0.006,105.0,104.0,101.0,13.4,1505.2,352.5,-0.8,1.8,2471.525,13.29,0.04,126.0
2023-11-10T02:13:03,42.805,6.029,0.033,-0.007,-0.013,105.0,104.0,102.0,13.3,1505.2,337.8,-0.8,1.8,2471.532,13.29,0.033,102.0
2023-11-10T02:16:03,42.805,6.029,0.051,-0.026,-0.013,104.0,104.0,101.0,13.3,1505.2,336.8,-0.8,1.8,2471.51,13.29,0.057,117.0
2023-11-10T02:19:03,42.805,6.029,0.019,-0.023,-0.008,103.0,104.0,101.0,13.3,1505.2,342.6,-0.8,1.8,2471.571,13.29,0.029,140.4
2023-11-10T02:22:03,42.805,6.029,0.024,-0.015,-0.009,103.0,104.0,101.0,13.3,1505.2,355.9,-0.8,1.8,2471.53,13.29,0.028,122.0
2023-11-10T02:25:03,42.805,6.029,0.032,-0.039,0.011,104.0,104.0,101.0,13.3,1505.2,353.7,-0.8,1.9,2471.522,13.29,0.05,140.6
2023-11-10T02:28:03,42.805,6.029,0.03,0.0,-0.015,106.0,103.0,101.0,13.4,1505.2,334.5,-0.7,1.8,2471.527,13.29,0.03,90.0
2023-11-10T02:31:03,42.805,6.029,0.03,-0.012,-0.037,103.0,103.0,102.0,13.3,1505.2,356.5,-0.8,1.9,2471.545,13.29,0.032,111.8
2023-11-10T02:34:03,42.805,6.029,0.006,-0.014,0.015,103.0,104.0,102.0,13.3,1505.2,350.2,-0.7,1.8,2471.528,13.29,0.015,156.8
2023-11-10T02:37:03,42.805,6.029,0.022,-0.014,-0.037,104.0,102.0,102.0,13.3,1505.2,346.7,-0.8,1.8,2471.515,13.29,0.026,122.5
2023-11-10T02:40:03,42.805,6.029,0.026,-0.029,-0.036,102.0,104.0,102.0,13.4,1505.2,357.0,-0.8,1.8,2471.543,13.29,0.038,138.1
2023-11-10T02:43:03,42.805,6.029,0.036,-0.012,0.004,104.0,103.0,102.0,13.3,1505.2,341.8,-0.8,1.8,2471.538,13.29,0.037,108.4
2023-11-10T02:46:03,42.805,6.029,0.046,-0.016,-0.001,104.0,103.0,102.0,13.3,1505.2,336.6,-0.8,1.8,2471.548,13.29,0.048,109.2
2023-11-10T02:49:03,42.805,6.029,0.025,-0.028,-0.02,104.0,103.0,102.0,13.3,1505.2,357.2,-0.8,1.8,2471.535,13.29,0.037,138.2
2023-11-10T02:52:03,42.805,6.029,0.028,-0.017,0.007,103.0,105.0,103.0,13.3,1505.2,342.9,-0.8,1.8,2471.547,13.29,0.032,121.3
2023-11-10T02:55:03,42.805,6.029,0.033,-0.011,-0.036,103.0,102.0,103.0,13.3,1505.2,335.2,-0.8,1.8,2471.539,13.29,0.034,108.4
2023-11-10T02:58:03,42.805,6.029,0.044,-0.003,0.002,103.0,103.0,102.0,13.4,1505.2,336.6,-0.8,1.8,2471.528,13.29,0.044,93.9
2023-11-10T03:04:03,42.805,6.029,0.042,-0.004,-0.032,104.0,103.0,101.0,13.4,1505.2,335.7,-0.8,1.8,2471.583,13.28,0.042,95.4
2023-11-10T03:07:03,42.805,6.029,0.034,-0.007,-0.024,105.0,102.0,103.0,13.3,1505.2,347.5,-0.8,1.8,2471.578,13.29,0.034,101.6
2023-11-10T03:10:03,42.805,6.029,0.024,-0.012,-0.026,103.0,103.0,102.0,13.3,1505.2,341.5,-0.8,1.8,2471.593,13.29,0.026,116.6
2023-11-10T03:13:03,42.805,6.029,0.045,-0.01,0.0,103.0,104.0,102.0,13.4,1505.2,345.5,-0.7,1.8,2471.597,13.29,0.046,102.5
2023-11-10T03:16:03,42.805,6.029,0.037,0.003,-0.032,102.0,103.0,103.0,13.4,1505.2,343.5,-0.7,1.8,2471.576,13.29,0.037,85.4
2023-11-10T03:19:03,42.805,6.029,0.016,-0.008,-0.028,104.0,103.0,102.0,13.4,1505.2,333.8,-0.8,1.8,2471.531,13.29,0.017,116.6
2023-11-10T03:22:03,42.805,6.029,0.038,-0.012,-0.01,104.0,103.0,101.0,13.4,1505.2,346.9,-0.7,1.8,2471.587,13.29,0.039,107.5
2023-11-10T03:25:03,42.805,6.029,0.025,-0.017,-0.021,104.0,104.0,102.0,13.4,1505.2,341.5,-0.7,1.8,2471.581,13.29,0.03,124.2
2023-11-10T03:28:03,42.805,6.029,0.023,-0.011,-0.007,102.0,103.0,103.0,13.4,1505.2,349.0,-0.8,1.8,2471.561,13.29,0.025,115.6
2023-11-10T03:31:03,42.805,6.029,0.03,-0.005,-0.039,105.0,104.0,102.0,13.4,1505.2,334.9,-0.7,1.8,2471.583,13.29,0.03,99.5
2023-11-10T03:34:03,42.805,6.029,0.028,-0.001,0.021,104.0,104.0,102.0,13.4,1505.2,0.9,-0.8,1.8,2471.569,13.29,0.028,92.0
2023-11-10T03:37:03,42.805,6.029,0.034,-0.028,-0.016,103.0,103.0,103.0,13.4,1505.2,344.5,-0.8,1.8,2471.554,13.29,0.044,129.5
2023-11-10T03:40:03,42.805,6.029,0.032,-0.022,-0.029,104.0,104.0,102.0,13.4,1505.2,346.7,-0.8,1.8,2471.573,13.29,0.038,124.5
2023-11-10T03:43:03,42.805,6.029,0.042,-0.002,0.004,105.0,103.0,102.0,13.4,1505.2,333.0,-0.8,1.8,2471.547,13.29,0.042,92.7
2023-11-10T03:46:03,42.805,6.029,0.024,-0.044,-0.034,104.0,104.0,102.0,13.4,1505.2,353.9,-0.8,1.8,2471.571,13.29,0.05,151.4
2023-11-10T03:49:03,42.805,6.029,0.016,-0.006,-0.007,105.0,104.0,103.0,13.4,1505.2,354.1,-0.8,1.8,2471.545,13.29,0.017,110.6
2023-11-10T03:52:03,42.805,6.029,0.017,-0.008,0.002,104.0,103.0,102.0,13.4,1505.2,348.1,-0.7,1.8,2471.61,13.29,0.018,115.2
2023-11-10T03:55:03,42.805,6.029,0.033,-0.019,-0.046,103.0,105.0,101.0,13.4,1505.2,338.7,-0.8,1.8,2471.585,13.29,0.038,119.9
2023-11-10T03:58:03,42.805,6.029,0.02,-0.011,-0.006,104.0,105.0,102.0,13.4,1505.2,342.7,-0.8,1.8,2471.598,13.29,0.022,118.8
2023-11-10T04:04:03,42.805,6.029,0.033,-0.037,-0.023,105.0,105.0,101.0,13.4,1505.2,351.0,-0.8,1.8,2471.597,13.28,0.049,138.3
2023-11-10T04:07:03,42.805,6.029,0.033,-0.012,0.0,104.0,103.0,103.0,13.4,1505.2,358.0,-0.8,1.8,2471.585,13.29,0.035,110.0
2023-11-10T04:10:03,42.805,6.029,0.031,-0.015,-0.013,104.0,106.0,103.0,13.4,1505.2,355.2,-0.8,1.8,2471.622,13.29,0.034,115.8
2023-11-10T04:13:03,42.805,6.029,0.057,-0.04,-0.022,104.0,106.0,102.0,13.4,1505.2,338.5,-0.8,1.8,2471.653,13.29,0.069,125.1
2023-11-10T04:16:03,42.805,6.029,0.047,-0.037,0.024,104.0,104.0,102.0,13.4,1505.2,0.0,-0.8,1.8,2471.604,13.29,0.059,128.2
2023-11-10T04:19:03,42.805,6.029,0.035,-0.014,-0.006,103.0,103.0,102.0,13.3,1505.2,347.0,-0.8,1.8,2471.633,13.29,0.037,111.8
2023-11-10T04:22:03,42.805,6.029,0.05,-0.015,-0.021,104.0,104.0,103.0,13.4,1505.2,336.8,-0.8,1.8,2471.597,13.29,0.052,106.7
2023-11-10T04:25:03,42.805,6.029,0.046,-0.004,-0.015,104.0,104.0,102.0,13.3,1505.2,338.7,-0.8,1.8,2471.594,13.29,0.046,95.0
2023-11-10T04:28:03,42.805,6.029,0.028,0.008,0.01,105.0,104.0,102.0,13.3,1505.2,0.0,-0.8,1.8,2471.595,13.29,0.029,74.1
2023-11-10T04:31:03,42.805,6.029,0.037,-0.01,-0.02,105.0,105.0,103.0,13.3,1505.2,347.3,-0.8,1.8,2471.612,13.29,0.038,105.1
2023-11-10T04:34:03,42.805,6.029,0.048,-0.025,-0.013,104.0,104.0,103.0,13.4,1505.2,338.4,-0.7,1.8,2471.605,13.29,0.054,117.5
2023-11-10T04:37:03,42.805,6.029,0.054,-0.018,0.008,104.0,104.0,102.0,13.4,1505.2,353.2,-0.8,1.8,2471.599,13.29,0.056,108.4
2023-11-10T04:40:03,42.805,6.029,0.033,-0.004,0.008,104.0,104.0,102.0,13.4,1505.2,348.8,-0.7,1.8,2471.578,13.29,0.033,96.9
2023-11-10T04:43:03,42.805,6.029,0.044,-0.035,0.02,105.0,103.0,101.0,13.3,1505.2,351.1,-0.7,1.8,2471.587,13.29,0.056,128.5
2023-11-10T04:46:03,42.805,6.029,0.044,-0.006,0.009,103.0,104.0,102.0,13.4,1505.2,342.6,-0.7,1.8,2471.589,13.29,0.044,97.8
2023-11-10T04:49:03,42.805,6.029,0.032,-0.01,-0.016,105.0,104.0,103.0,13.4,1505.2,333.0,-0.8,1.8,2471.587,13.29,0.033,107.4
2023-11-10T04:52:03,42.805,6.029,0.029,-0.022,-0.021,104.0,105.0,103.0,13.3,1505.2,355.2,-0.8,1.8,2471.57,13.29,0.036,127.2
2023-11-10T04:55:03,42.805,6.029,0.05,-0.02,-0.009,106.0,103.0,101.0,13.3,1505.2,345.7,-0.7,1.8,2471.568,13.29,0.053,111.8
2023-11-10T04:58:03,42.805,6.029,0.022,-0.015,-0.003,105.0,104.0,101.0,13.4,1505.2,333.8,-0.8,1.7,2471.564,13.29,0.026,124.3
2023-11-10T05:04:02,42.805,6.029,0.034,-0.036,-0.028,105.0,104.0,102.0,13.4,1505.2,345.7,-0.8,1.9,2471.672,13.28,0.049,136.6
2023-11-10T05:07:03,42.805,6.029,0.045,-0.022,-0.019,104.0,105.0,103.0,13.4,1505.2,355.6,-0.8,1.8,2471.656,13.29,0.05,116.1
2023-11-10T05:10:03,42.805,6.029,0.015,0.0,-0.014,106.0,103.0,102.0,13.3,1505.2,341.5,-0.7,1.8,2471.639,13.29,0.015,90.0
2023-11-10T05:13:03,42.805,6.029,0.035,-0.009,-0.023,105.0,104.0,103.0,13.3,1505.2,339.8,-0.7,1.8,2471.599,13.29,0.036,104.4
2023-11-10T05:16:03,42.805,6.029,0.054,-0.036,-0.002,104.0,104.0,103.0,13.3,1505.2,359.1,-0.7,1.8,2471.594,13.29,0.064,123.7
2023-11-10T05:19:03,42.805,6.029,0.046,-0.016,-0.02,104.0,104.0,103.0,13.4,1505.2,343.1,-0.8,1.8,2471.614,13.29,0.048,109.2
2023-11-10T05:22:03,42.805,6.029,0.058,-0.01,0.007,104.0,104.0,102.0,13.3,1505.2,336.6,-0.7,1.8,2471.629,13.29,0.058,99.8
2023-11-10T05:25:03,42.805,6.029,0.027,-0.031,-0.028,105.0,104.0,102.0,13.3,1505.2,0.8,-0.8,1.8,2471.596,13.29,0.041,138.9
2023-11-10T05:28:03,42.805,6.029,0.039,-0.029,-0.025,104.0,105.0,102.0,13.4,1505.2,350.2,-0.8,1.8,2471.601,13.29,0.048,126.6
2023-11-10T05:31:03,42.805,6.029,0.052,-0.028,-0.006,105.0,104.0,102.0,13.4,1505.2,335.5,-0.8,1.8,2471.616,13.29,0.059,118.3
2023-11-10T05:34:03,42.805,6.029,0.018,-0.03,-0.02,105.0,104.0,102.0,13.3,1505.2,352.3,-0.8,1.8,2471.625,13.29,0.034,149.0
2023-11-10T05:37:03,42.805,6.029,0.029,-0.035,0.008,104.0,105.0,103.0,13.4,1505.2,354.1,-0.8,1.8,2471.623,13.29,0.045,140.4
2023-11-10T05:40:03,42.805,6.029,0.039,-0.016,0.017,104.0,104.0,102.0,13.4,1505.2,349.8,-0.8,1.8,2471.627,13.29,0.042,112.3
2023-11-10T05:43:03,42.805,6.029,0.055,-0.03,-0.027,105.0,104.0,102.0,13.4,1505.2,333.8,-0.8,1.8,2471.618,13.29,0.062,118.6
2023-11-10T05:46:03,42.805,6.029,0.032,-0.019,-0.014,104.0,104.0,102.0,13.4,1505.2,356.5,-0.7,1.8,2471.602,13.29,0.037,120.7
2023-11-10T05:49:03,42.805,6.029,0.039,-0.019,-0.01,105.0,104.0,103.0,13.4,1505.2,346.4,-0.8,1.8,2471.604,13.29,0.043,116.0
2023-11-10T05:52:03,42.805,6.029,0.009,-0.015,-0.019,105.0,104.0,102.0,13.4,1505.2,349.0,-0.7,1.8,2471.586,13.29,0.017,149.0
2023-11-10T05:55:03,42.805,6.029,0.025,-0.022,-0.034,105.0,104.0,102.0,13.4,1505.2,333.4,-0.8,1.8,2471.583,13.29,0.033,131.3
2023-11-10T05:58:03,42.805,6.029,0.034,-0.054,-0.029,105.0,104.0,103.0,13.4,1505.2,0.0,-0.8,1.8,2471.583,13.29,0.063,147.8
2023-11-10T06:04:03,42.805,6.029,0.04,-0.011,-0.004,104.0,105.0,102.0,13.4,1505.2,334.1,-0.8,1.8,2471.643,13.28,0.041,105.4
2023-11-10T06:07:03,42.805,6.029,0.031,-0.043,0.011,105.0,104.0,102.0,13.4,1505.2,359.0,-0.8,1.8,2471.648,13.29,0.053,144.2
2023-11-10T06:10:03,42.805,6.029,0.053,-0.043,-0.021,105.0,104.0,102.0,13.3,1505.2,353.2,-0.8,1.8,2471.649,13.29,0.068,129.1
2023-11-10T06:13:03,42.805,6.029,0.018,-0.011,-0.029,105.0,103.0,102.0,13.3,1505.2,349.8,-0.8,1.8,2471.616,13.29,0.021,121.4
2023-11-10T06:16:03,42.805,6.029,0.06,-0.015,-0.033,104.0,104.0,101.0,13.4,1505.2,334.6,-0.8,1.8,2471.641,13.29,0.061,104.0
2023-11-10T06:19:03,42.805,6.029,0.029,-0.021,-0.026,105.0,104.0,103.0,13.4,1505.2,336.6,-0.8,1.8,2471.604,13.29,0.035,125.9
2023-11-10T06:22:03,42.805,6.029,0.027,-0.018,-0.006,104.0,104.0,102.0,13.3,1505.2,344.6,-0.8,1.8,2471.591,13.29,0.032,123.7
2023-11-10T06:25:03,42.805,6.029,0.023,-0.029,-0.048,105.0,104.0,102.0,13.4,1505.2,350.3,-0.7,1.8,2471.601,13.29,0.037,141.6
2023-11-10T06:28:03,42.805,6.029,0.023,-0.012,-0.015,106.0,105.0,102.0,13.4,1505.2,335.2,-0.8,1.8,2471.636,13.29,0.025,117.6
2023-11-10T06:31:03,42.805,6.029,0.017,-0.029,-0.02,104.0,104.0,103.0,13.4,1505.2,356.5,-0.8,1.8,2471.57,13.29,0.033,149.6
2023-11-10T06:34:03,42.805,6.029,0.026,-0.035,-0.003,104.0,104.0,102.0,13.4,1505.2,352.1,-0.8,1.8,2471.608,13.29,0.043,143.4
2023-11-10T06:37:03,42.805,6.029,0.041,-0.011,0.012,105.0,104.0,102.0,13.4,1505.2,338.0,-0.8,1.8,2471.581,13.29,0.042,105.0
2023-11-10T06:40:03,42.805,6.029,0.053,-0.018,-0.006,104.0,104.0,102.0,13.4,1505.2,335.6,-0.8,1.8,2471.595,13.29,0.055,108.8
2023-11-10T06:43:03,42.805,6.029,0.049,-0.022,-0.009,105.0,106.0,103.0,13.3,1505.2,344.4,-0.8,1.8,2471.604,13.29,0.053,114.2
2023-11-10T06:46:03,42.805,6.029,0.014,-0.04,-0.024,105.0,104.0,103.0,13.4,1505.2,352.2,-0.7,1.8,2471.589,13.29,0.042,160.7
2023-11-10T06:49:03,42.805,6.029,0.039,0.003,-0.009,105.0,104.0,103.0,13.4,1505.2,335.6,-0.7,1.8,2471.604,13.29,0.039,85.6
2023-11-10T06:52:03,42.805,6.029,0.038,-0.045,-0.008,104.0,104.0,103.0,13.3,1505.2,355.1,-0.8,1.8,2471.594,13.29,0.058,139.8
2023-11-10T06:55:03,42.805,6.029,0.018,-0.025,0.015,105.0,105.0,102.0,13.4,1505.2,352.8,-0.7,1.8,2471.566,13.29,0.03,144.2
2023-11-10T06:58:03,42.805,6.029,0.023,-0.025,-0.032,104.0,104.0,102.0,13.3,1505.2,347.9,-0.8,1.8,2471.631,13.29,0.033,137.4
2023-11-10T07:04:02,42.805,6.029,0.019,-0.023,-0.003,104.0,104.0,103.0,13.4,1505.2,344.5,-0.8,1.8,2471.623,13.28,0.029,140.4
2023-11-10T07:07:03,42.805,6.029,0.006,-0.023,-0.024,105.0,103.0,102.0,13.4,1505.2,350.0,-0.8,1.8,2471.606,13.29,0.023,165.4
2023-11-10T07:10:03,42.805,6.029,0.011,-0.024,-0.023,104.0,104.0,102.0,13.4,1505.2,341.8,-0.8,1.8,2471.632,13.29,0.026,155.4
2023-11-10T07:13:03,42.805,6.029,0.032,-0.032,-0.008,105.0,105.0,102.0,13.3,1505.2,357.4,-0.8,1.8,2471.598,13.29,0.045,135.0
2023-11-10T07:16:03,42.805,6.029,0.047,-0.012,0.004,105.0,105.0,102.0,13.3,1505.2,339.3,-0.8,1.8,2471.631,13.29,0.048,104.3
2023-11-10T07:19:03,42.805,6.029,0.014,-0.023,0.006,104.0,103.0,103.0,13.4,1505.2,345.2,-0.7,1.8,2471.583,13.29,0.026,148.7
2023-11-10T07:22:03,42.805,6.029,0.032,-0.02,-0.038,105.0,104.0,102.0,13.3,1505.2,338.4,-0.8,1.9,2471.59,13.29,0.037,122.0
2023-11-10T07:25:03,42.805,6.029,0.018,-0.024,-0.027,105.0,104.0,102.0,13.4,1505.2,341.2,-0.7,1.8,2471.593,13.29,0.03,143.1
2023-11-10T07:28:03,42.805,6.029,0.026,-0.014,0.004,105.0,104.0,102.0,13.4,1505.2,346.2,-0.8,1.8,2471.568,13.29,0.029,118.3
2023-11-10T07:31:03,42.805,6.029,0.023,-0.014,0.003,104.0,103.0,103.0,13.3,1505.2,355.7,-0.8,1.8,2471.545,13.29,0.026,121.3
2023-11-10T07:34:03,42.805,6.029,0.013,-0.033,-0.015,104.0,104.0,103.0,13.4,1505.2,348.5,-0.8,1.8,2471.559,13.29,0.035,158.5
2023-11-10T07:37:03,42.805,6.029,0.026,-0.032,-0.022,105.0,104.0,101.0,13.3,1505.2,343.6,-0.8,1.8,2471.577,13.29,0.041,140.9
2023-11-10T07:40:03,42.805,6.029,0.03,-0.019,-0.006,105.0,105.0,101.0,13.4,1505.2,342.6,-0.8,1.8,2471.547,13.29,0.035,122.3
2023-11-10T07:43:03,42.805,6.029,0.04,0.011,0.011,104.0,104.0,103.0,13.3,1505.2,350.3,-0.7,1.8,2471.563,13.29,0.041,74.6
2023-11-10T07:46:03,42.805,6.029,0.029,-0.017,-0.029,106.0,104.0,102.0,13.4,1505.2,338.2,-0.8,1.9,2471.568,13.29,0.033,120.4
2023-11-10T07:49:03,42.805,6.029,0.034,-0.003,-0.018,104.0,104.0,102.0,13.3,1505.2,354.8,-0.8,1.8,2471.572,13.29,0.034,95.0
2023-11-10T07:52:03,42.805,6.029,0.012,-0.008,-0.023,105.0,105.0,101.0,13.4,1505.2,343.0,-0.8,1.8,2471.524,13.29,0.014,123.7
2023-11-10T07:55:03,42.805,6.029,0.041,-0.044,-0.033,105.0,105.0,102.0,13.4,1505.2,353.2,-0.8,1.8,2471.571,13.29,0.06,137.0
2023-11-10T07:58:03,42.805,6.029,0.033,-0.028,-0.007,103.0,105.0,102.0,13.4,1505.2,344.1,-0.8,1.8,2471.538,13.29,0.043,130.3
2023-11-10T08:04:03,42.805,6.029,0.022,-0.032,-0.044,104.0,105.0,103.0,13.3,1505.2,348.3,-0.7,1.8,2471.604,13.28,0.038,145.5
2023-11-10T08:07:03,42.805,6.029,0.027,-0.009,-0.029,105.0,104.0,103.0,13.4,1505.2,332.2,-0.8,1.8,2471.602,13.29,0.028,108.4
2023-11-10T08:10:03,42.805,6.029,0.006,-0.005,-0.05,105.0,104.0,102.0,13.4,1505.2,342.3,-0.8,1.8,2471.578,13.29,0.007,129.8
2023-11-10T08:13:03,42.805,6.029,0.026,-0.014,0.003,103.0,106.0,102.0,13.4,1505.2,339.7,-0.8,1.8,2471.554,13.29,0.029,118.3
2023-11-10T08:16:03,42.805,6.029,0.04,-0.039,-0.021,103.0,104.0,103.0,13.3,1505.2,341.3,-0.8,1.8,2471.571,13.29,0.055,134.3
2023-11-10T08:19:03,42.805,6.029,0.031,-0.016,-0.006,104.0,105.0,102.0,13.4,1505.2,354.9,-0.8,1.8,2471.569,13.29,0.034,117.3
2023-11-10T08:22:03,42.805,6.029,0.045,-0.032,-0.018,106.0,106.0,102.0,13.4,1505.2,349.2,-0.8,1.8,2471.585,13.29,0.055,125.4
2023-11-10T08:25:03,42.805,6.029,0.019,-0.014,-0.028,105.0,104.0,102.0,13.3,1505.2,351.3,-0.8,1.8,2471.559,13.29,0.023,126.4
2023-11-10T08:28:03,42.805,6.029,0.029,-0.014,0.007,104.0,103.0,102.0,13.4,1505.2,350.8,-0.8,1.8,2471.532,13.29,0.032,115.8
2023-11-10T08:31:03,42.805,6.029,0.036,-0.01,-0.007,104.0,104.0,103.0,13.4,1505.2,338.4,-0.8,1.8,2471.539,13.29,0.037,105.5
2023-11-10T08:34:03,42.805,6.029,0.032,-0.029,-0.029,105.0,105.0,101.0,13.3,1505.2,359.0,-0.7,1.8,2471.529,13.29,0.043,132.2
2023-11-10T08:37:03,42.805,6.029,0.011,-0.005,-0.012,105.0,103.0,102.0,13.4,1505.2,352.2,-0.8,1.8,2471.535,13.29,0.012,114.4
2023-11-10T08:40:03,42.805,6.029,0.016,0.0,0.003,104.0,103.0,101.0,13.4,1505.2,334.5,-0.8,1.8,2471.521,13.29,0.016,90.0
2023-11-10T08:43:03,42.805,6.029,0.006,-0.024,-0.02,103.0,104.0,102.0,13.4,1505.2,348.6,-0.7,1.8,2471.506,13.29,0.024,166.0
2023-11-10T08:46:03,42.805,6.029,0.003,-0.009,-0.006,105.0,103.0,102.0,13.4,1505.2,340.0,-0.8,1.8,2471.549,13.29,0.009,161.6
2023-11-10T08:49:03,42.805,6.029,0.035,-0.025,-0.009,103.0,104.0,102.0,13.3,1505.2,355.7,-0.8,1.8,2471.537,13.29,0.043,125.5
2023-11-10T08:52:03,42.805,6.029,0.025,-0.025,-0.021,103.0,105.0,104.0,13.3,1505.2,341.0,-0.8,1.8,2471.527,13.29,0.035,135.0
2023-11-10T08:55:03,42.805,6.029,0.015,-0.012,-0.032,105.0,104.0,102.0,13.4,1505.2,333.4,-0.7,1.8,2471.548,13.29,0.019,128.7
2023-11-10T08:58:03,42.805,6.029,0.031,-0.02,-0.025,107.0,104.0,103.0,13.3,1505.2,344.8,-0.8,1.8,2471.516,13.29,0.036,122.8
2023-11-10T09:04:02,42.805,6.029,0.011,-0.014,-0.006,104.0,105.0,102.0,13.4,1505.2,353.6,-0.8,1.8,2471.543,13.29,0.017,141.8
2023-11-10T09:07:03,42.805,6.029,0.029,-0.007,-0.009,105.0,104.0,101.0,13.4,1505.2,337.4,-0.8,1.8,2471.58,13.29,0.029,103.6
2023-11-10T09:10:03,42.805,6.029,0.03,-0.014,-0.041,103.0,104.0,102.0,13.4,1505.2,358.0,-0.8,1.8,2471.533,13.29,0.033,115.0
2023-11-10T09:13:03,42.805,6.029,0.018,-0.013,-0.049,103.0,104.0,102.0,13.3,1505.2,346.3,-0.8,1.8,2471.552,13.29,0.022,125.8
2023-11-10T09:16:03,42.805,6.029,0.036,-0.002,-0.021,104.0,104.0,101.0,13.4,1505.2,335.6,-0.7,1.8,2471.545,13.29,0.036,93.2
2023-11-10T09:19:03,42.805,6.029,0.009,-0.005,-0.027,103.0,103.0,102.0,13.4,1505.2,358.1,-0.8,1.8,2471.506,13.29,0.01,119.1
2023-11-10T09:22:03,42.805,6.029,0.032,-0.012,-0.034,105.0,104.0,101.0,13.3,1505.2,352.8,-0.7,1.8,2471.51,13.29,0.034,110.6
2023-11-10T09:25:03,42.805,6.029,0.013,0.003,0.0,105.0,105.0,102.0,13.3,1505.2,355.6,-0.8,1.8,2471.554,13.29,0.013,77.0
2023-11-10T09:28:03,42.805,6.029,0.029,-0.016,-0.004,105.0,105.0,102.0,13.4,1505.2,341.2,-0.8,1.8,2471.501,13.29,0.033,118.9
2023-11-10T09:31:03,42.805,6.029,0.02,0.002,0.013,106.0,103.0,101.0,13.4,1505.2,336.0,-0.7,1.8,2471.526,13.29,0.02,84.3
2023-11-10T09:34:03,42.805,6.029,0.036,0.004,0.034,104.0,103.0,102.0,13.4,1505.2,349.0,-0.8,1.8,2471.508,13.29,0.036,83.7
2023-11-10T09:37:03,42.805,6.029,0.017,-0.002,-0.014,105.0,103.0,102.0,13.3,1505.2,352.5,-0.7,1.8,2471.496,13.29,0.017,96.7
2023-11-10T09:40:03,42.805,6.029,0.047,-0.015,-0.002,105.0,104.0,102.0,13.4,1505.2,343.6,-0.7,1.8,2471.507,13.29,0.049,107.7
2023-11-10T09:43:03,42.805,6.029,0.014,-0.027,-0.048,104.0,104.0,102.0,13.4,1505.2,352.0,-0.8,1.8,2471.493,13.29,0.03,152.6
2023-11-10T09:46:03,42.805,6.029,0.016,-0.008,-0.049,103.0,105.0,102.0,13.4,1505.2,352.7,-0.8,1.8,2471.511,13.29,0.017,116.6
2023-11-10T09:49:03,42.805,6.029,0.029,0.007,0.008,105.0,103.0,102.0,13.4,1505.2,333.8,-0.8,1.8,2471.512,13.29,0.029,76.4
2023-11-10T09:52:03,42.805,6.029,0.02,-0.014,-0.046,104.0,104.0,102.0,13.4,1505.2,332.6,-0.8,1.8,2471.497,13.29,0.024,125.0
2023-11-10T09:55:03,42.805,6.029,0.03,-0.01,-0.02,103.0,105.0,102.0,13.3,1505.2,355.0,-0.8,1.8,2471.476,13.29,0.031,108.4